Tracking 17699 objects as of 31-May-2016
HD Live streaming from Space Station
objects crossing your sky now

SCOUT G-1 DEB

Track SCOUT G-1 DEB now!
10-day predictions


NORAD ID: 22707
Int'l Code: 1993-041D
Perigee: 714.9 km
Apogee: 928.1 km
Inclination: 90.1 °
Period: 101.2 minutes
Semi major axis: 7192 km
RCS: 0.041 m2 (small)
Launch date: June 25, 1993
Source: United States (US)
Launch site: AIR FORCE WESTERN TEST RANGE (AFWTR)

Note: This is SATELLITE DEBRIS
Your satellite tracking list
Your tracking list is empty





NASA's NSSDC Master Catalog

Two Line Element Set (TLE):
1 22707U 93041D   16151.66211731  .00000140  00000-0  50306-4 0  9999
2 22707  90.0768 245.6041 0148216  75.4851 286.2730 14.23247158187432
Source of the keplerian elements: AFSPC

N2YO: 604